カタログに戻る

FENGYUN 1C DEB

運用中SSO
NORAD 32175·DEBRIS·🇨🇳 China

打ち上げ May 10, 1999 から Taiyuan Satellite Launch Center

Loading…

次のパス (今後24時間)

TLE

経年Source: Space-Track

元期: Sep 7, 2026, 04:47 UTC

1 32175U 99025CTV 26250.19988276  .00001893  00000-0  12799-2 0  9999
2 32175  98.8383 232.7974 0146965 303.7948  54.9292 13.96467146635853

AllMySatでFENGYUN 1C DEBをリアルタイム追跡

Download on the App Store